Date,TemperatureHighF,TemperatureAvgF,TemperatureLowF,DewpointHighF,DewpointAvgF,DewpointLowF,HumidityHigh,HumidityAvg,HumidityLow,PressureMaxIn,PressureMinIn,WindSpeedMaxMPH,WindSpeedAvgMPH,GustSpeedMaxMPH,PrecipitationSumIn
2013-1-1,57.5,47.1,36.6,27.4,22.7,6.8,65,41,15,30.16,30.03,12,0,16,0.00
2013-1-2,64.8,53.0,44.8,26.2,15.6,4.7,46,24,13,30.03,29.93,14,1,26,0.00
2013-1-3,67.9,54.1,44.1,19.6,11.7,0.5,33,19,7,30.10,29.96,11,1,20,0.00
2013-1-4,64.3,49.0,38.8,18.2,11.3,5.2,34,23,11,30.21,30.08,5,0,8,0.00
2013-1-5,62.9,49.6,40.6,23.7,17.8,11.1,45,30,14,30.22,30.09,5,0,7,0.00
2013-1-6,51.1,45.3,41.2,40.7,35.8,21.8,86,70,40,30.12,29.93,12,0,15,0.11
2013-1-7,51.6,47.5,42.2,32.6,24.5,14.9,67,43,23,29.95,29.88,19,4,26,0.00
2013-1-8,74.2,60.2,49.6,33.2,27.8,20.2,46,31,17,30.02,29.93,6,0,7,0.00
2013-1-9,68.4,56.8,48.9,45.8,34.4,27.4,85,46,25,30.04,29.90,5,0,9,0.00
2013-1-10,52.9,46.1,38.6,44.3,28.4,14.0,88,54,22,29.99,29.83,12,1,21,0.02
2013-1-11,50.2,41.4,35.2,20.3,17.1,12.0,52,38,22,30.11,29.99,12,1,18,0.00
2013-1-12,52.2,41.2,32.4,19.5,14.0,6.7,55,35,16,30.08,29.97,7,1,14,0.00
2013-1-13,52.2,40.9,31.3,20.0,12.0,0.3,51,32,17,30.10,29.98,14,1,17,0.00
2013-1-14,52.0,41.6,32.4,7.5,-3.3,-14.2,28,16,6,30.25,30.04,12,1,19,0.00
2013-1-15,57.6,41.6,32.9,11.2,7.3,4.9,35,25,14,30.37,30.24,5,0,9,0.00
2013-1-16,67.6,56.8,41.5,26.1,20.9,14.6,41,26,17,30.27,30.02,5,0,7,0.00
2013-1-17,76.3,60.9,50.1,19.8,13.1,1.1,26,16,6,30.08,29.97,7,0,11,0.00
2013-1-18,76.0,63.2,49.4,18.7,12.0,2.7,23,14,9,30.06,29.97,6,0,10,0.00
2013-1-19,76.0,62.2,52.9,15.8,6.5,-2.5,18,11,7,30.09,29.97,7,0,12,0.00
2013-1-20,77.4,63.3,50.8,13.1,1.9,-15.7,14,9,3,30.05,29.92,13,1,16,0.00
2013-1-21,79.6,68.5,55.4,11.2,-0.2,-11.4,12,6,4,30.00,29.89,10,1,19,0.00
2013-1-22,77.9,61.7,51.9,17.0,5.8,-4.6,18,11,5,30.02,29.93,5,0,10,0.00
2013-1-23,74.7,63.9,53.5,42.8,24.3,11.2,67,23,16,30.03,29.92,10,0,13,0.01
2013-1-24,60.2,55.0,50.4,52.8,50.4,38.9,90,85,58,30.11,29.97,10,0,13,0.83
2013-1-25,58.6,56.3,54.8,55.4,52.3,50.2,89,87,80,30.07,29.86,3,0,6,0.13
2013-1-26,67.1,57.8,52.5,54.4,51.2,49.4,90,79,56,29.89,29.78,6,0,9,0.07
2013-1-27,54.8,48.9,39.9,50.0,42.3,25.9,90,78,48,29.94,29.85,15,0,15,0.28
2013-1-28,55.7,46.0,39.3,28.4,23.2,16.7,64,42,25,30.11,29.94,9,1,19,0.00
2013-1-29,57.5,46.2,38.3,35.2,30.0,23.8,77,55,35,30.15,30.06,6,0,7,0.00
2013-1-30,69.1,52.2,40.3,38.3,34.2,28.5,78,54,23,30.25,30.13,10,0,12,0.00
2013-1-31,76.3,58.8,47.3,37.2,33.0,28.0,65,40,19,30.16,30.00,6,0,9,0.00
2013-2-1,74.7,61.2,51.7,38.8,33.6,28.6,49,37,21,30.07,30.01,7,0,12,0.00
2013-2-2,73.3,62.6,55.9,44.7,36.3,31.7,62,39,22,30.10,30.02,3,0,10,0.02
2013-2-3,73.0,61.6,51.6,41.8,35.6,28.4,62,40,21,30.05,29.90,12,1,16,0.00
2013-2-4,73.5,57.6,48.9,45.1,35.8,28.1,72,46,26,29.99,29.88,5,0,9,0.00
2013-2-5,58.4,49.0,40.2,47.6,42.7,34.8,89,79,64,30.01,29.90,7,0,11,0.00
2013-2-6,62.7,50.3,40.9,46.2,42.0,36.5,88,75,46,30.02,29.90,4,0,9,0.00
2013-2-7,59.3,48.5,40.1,45.3,38.5,28.0,86,68,52,30.06,29.88,7,0,11,0.00
2013-2-8,50.2,42.4,34.1,39.5,34.4,30.4,87,74,48,29.90,29.78,10,0,17,0.16
2013-2-9,54.5,42.8,33.1,32.9,30.1,26.1,86,63,38,30.01,29.84,10,0,11,0.01
2013-2-10,51.4,42.9,34.7,36.4,32.9,28.6,81,68,49,30.02,29.94,7,0,10,0.00
2013-2-11,57.6,45.6,35.6,33.5,17.8,0.0,82,41,10,30.15,29.97,13,1,19,0.00
2013-2-12,63.9,47.4,37.5,25.7,19.2,10.9,51,34,15,30.26,30.15,9,0,10,0.00
2013-2-13,69.6,52.1,41.2,29.2,23.3,19.4,48,34,16,30.18,30.05,5,0,9,0.00
2013-2-14,74.7,59.0,44.8,28.7,22.6,15.8,45,27,11,30.10,29.97,11,1,15,0.00
2013-2-15,77.7,69.2,59.6,26.1,16.1,6.9,22,13,10,30.09,30.00,17,3,24,0.00
2013-2-16,78.1,63.9,52.0,19.4,9.6,-6.9,23,13,5,30.07,29.86,6,0,12,0.00
2013-2-17,68.6,55.5,44.6,45.3,28.0,14.0,85,40,18,29.92,29.81,9,1,11,0.00
2013-2-18,63.1,49.8,40.6,42.8,40.2,35.0,89,72,36,29.98,29.85,6,0,10,0.00
2013-2-19,49.4,45.6,39.6,42.4,37.4,34.3,87,73,57,29.87,29.61,10,0,11,0.20
2013-2-20,59.2,44.3,33.1,36.0,25.9,16.4,88,53,23,29.91,29.61,9,1,15,0.02
2013-2-21,58.0,46.0,35.5,33.2,23.8,12.4,65,45,18,30.01,29.89,8,1,15,0.00
2013-2-22,50.4,42.2,38.0,23.1,21.4,18.5,50,44,28,30.10,29.99,9,0,12,0.00
2013-2-23,65.2,55.4,41.2,40.2,27.5,18.9,57,35,23,30.03,29.83,10,1,18,0.00
2013-2-24,62.6,51.6,41.8,27.1,7.3,-6.1,40,18,6,30.10,29.89,18,1,25,0.00
2013-2-25,67.8,51.6,41.2,22.3,14.5,6.1,45,25,10,30.14,29.99,6,0,9,0.00
2013-2-26,73.0,54.4,39.3,27.6,17.0,3.8,49,26,10,30.00,29.90,5,0,12,0.00
2013-2-27,71.3,58.4,45.8,15.6,6.9,-1.7,29,14,6,30.16,30.01,13,1,20,0.00
2013-2-28,76.5,62.7,48.8,18.1,10.0,1.1,19,13,8,30.21,30.13,7,0,14,0.00
2013-3-1,83.2,67.9,55.7,22.1,16.4,8.9,21,14,8,30.19,30.05,10,1,14,0.00
2013-3-2,82.0,66.6,56.3,25.7,21.1,15.9,27,18,9,30.11,29.98,11,0,12,0.00
2013-3-3,70.8,60.1,48.0,44.8,30.8,17.5,73,35,19,29.99,29.86,9,0,13,0.00
2013-3-4,68.6,53.9,44.1,46.8,43.5,39.0,87,70,42,30.01,29.90,7,0,12,0.00
2013-3-5,65.5,51.5,45.2,47.6,44.3,41.2,89,77,43,30.03,29.92,7,0,13,0.00
2013-3-6,55.6,50.0,46.1,44.6,41.4,38.1,85,73,52,30.06,29.91,7,0,10,0.02
2013-3-7,54.2,49.3,45.8,46.0,41.6,35.7,90,76,52,29.92,29.75,10,0,11,0.20
2013-3-8,52.8,45.1,38.0,41.8,38.1,32.3,89,77,48,29.93,29.70,6,0,14,0.90
2013-3-9,62.1,50.3,40.3,41.2,37.6,33.4,89,65,35,30.12,29.92,13,0,13,0.01
2013-3-10,71.6,55.4,41.8,36.2,30.0,17.4,74,43,15,30.17,30.06,8,1,11,0.00
2013-3-11,77.4,60.0,47.3,30.7,24.1,17.6,38,26,12,30.09,29.96,9,0,11,0.00
2013-3-12,84.1,64.5,50.1,30.5,26.8,20.6,43,26,10,29.99,29.91,7,0,9,0.00
2013-3-13,90.1,71.1,58.0,35.1,28.7,22.3,32,22,9,30.01,29.92,9,0,10,0.00
2013-3-14,90.5,71.9,59.0,36.9,32.3,23.9,36,25,10,29.98,29.89,10,1,11,0.00
2013-3-15,83.2,68.5,56.9,45.7,36.7,24.4,46,33,12,29.91,29.83,7,0,10,1.53
2013-3-16,75.8,62.4,46.5,49.6,46.0,37.2,82,58,34,29.86,29.77,6,1,10,0.00
2013-3-17,72.3,59.0,47.4,48.0,42.8,30.4,90,58,31,29.89,29.79,6,0,11,0.00
2013-3-18,66.3,54.5,47.0,48.7,45.6,41.5,87,73,50,30.00,29.86,6,0,12,0.00
2013-3-19,72.7,55.4,45.4,49.3,45.8,42.3,90,73,41,30.03,29.93,6,0,10,0.00
2013-3-20,71.3,59.7,50.7,48.3,44.5,39.1,83,59,33,30.01,29.85,6,0,9,0.00
2013-3-21,74.2,61.6,52.0,47.3,41.1,18.0,73,49,20,29.86,29.70,9,0,16,0.00
2013-3-22,75.6,58.9,43.3,44.3,29.8,-0.3,76,40,6,29.81,29.69,9,0,14,0.00
2013-3-23,75.8,57.9,43.1,44.5,33.5,15.6,71,42,12,29.91,29.79,6,0,10,0.00
2013-3-24,77.0,60.3,44.9,40.2,35.1,26.5,68,41,21,29.92,29.81,9,0,10,0.00
2013-3-25,77.6,62.3,50.1,44.7,35.8,26.0,52,38,22,29.87,29.80,8,0,11,0.00
2013-3-26,72.7,58.5,46.4,47.9,41.3,33.8,74,54,35,29.85,29.79,9,0,11,0.00
2013-3-27,71.1,55.9,45.4,48.5,45.5,41.5,88,70,37,29.94,29.81,7,0,13,0.00
2013-3-28,75.3,58.4,45.4,48.9,45.8,41.5,89,66,31,29.98,29.91,7,0,12,0.00
2013-3-29,78.8,62.2,48.8,48.7,43.1,34.0,78,54,21,30.01,29.93,12,0,13,0.00
2013-3-30,76.5,60.9,50.2,51.2,41.1,24.7,84,54,16,30.02,29.91,7,0,12,0.00
2013-3-31,63.2,56.0,50.4,51.5,46.8,36.0,85,72,54,30.03,29.95,6,0,13,0.01
2013-4-1,64.2,53.9,46.2,48.1,44.0,40.8,87,71,44,30.07,29.98,9,0,14,0.01
2013-4-2,74.4,56.6,43.8,48.8,44.8,39.9,89,67,37,30.01,29.88,6,0,10,0.00
2013-4-3,80.3,62.3,47.9,48.5,40.5,32.7,71,48,20,29.98,29.89,7,0,12,0.00
2013-4-4,76.3,60.3,48.5,49.3,46.6,40.1,87,64,32,30.01,29.91,7,0,13,0.00
2013-4-5,72.1,58.9,50.2,51.3,48.6,45.5,88,70,45,29.98,29.89,7,0,11,0.00
2013-4-6,74.6,60.5,47.1,48.8,44.1,31.0,84,58,29,29.98,29.86,10,0,10,0.00
2013-4-7,78.5,60.8,50.4,50.4,43.2,33.8,79,55,21,29.86,29.71,6,0,12,0.00
2013-4-8,63.7,56.2,51.4,48.5,34.7,18.9,85,50,21,29.73,29.57,19,1,26,0.00
2013-4-9,75.1,61.3,49.1,31.0,16.7,4.9,44,19,7,29.91,29.72,12,1,18,0.00
2013-4-10,83.6,66.1,51.4,29.2,18.0,5.8,28,17,6,29.98,29.87,8,0,14,0.00
2013-4-11,76.5,61.8,49.8,48.3,34.0,23.0,78,38,17,29.88,29.68,12,1,13,0.00
2013-4-12,77.0,60.4,49.5,49.7,47.2,44.1,85,65,36,29.77,29.68,6,0,10,0.00
2013-4-13,66.9,56.0,47.7,51.5,48.2,43.4,89,76,54,29.81,29.73,10,0,12,0.00
2013-4-14,64.0,53.6,49.6,48.8,47.1,46.2,89,79,53,29.79,29.72,4,0,10,0.01
2013-4-15,60.9,54.2,49.9,47.8,45.7,41.6,87,74,57,29.80,29.73,7,0,12,0.01
2013-4-16,66.8,55.4,46.4,42.3,26.1,13.9,79,38,14,29.89,29.75,9,1,22,0.00
2013-4-17,69.8,58.8,48.9,20.8,14.5,3.3,31,19,8,30.05,29.89,16,1,27,0.00
2013-4-18,76.7,63.5,50.5,18.0,10.7,3.4,23,13,7,30.09,29.99,19,2,21,0.00
2013-4-19,83.6,67.5,53.1,25.0,12.4,6.3,20,12,6,30.06,29.85,9,1,13,0.00
2013-4-20,88.6,71.7,55.3,33.3,26.6,20.9,28,20,9,29.87,29.76,8,1,12,0.00
2013-4-21,85.5,69.6,55.1,42.1,31.7,23.3,53,26,11,29.88,29.81,10,1,12,0.00
2013-4-22,78.1,60.6,47.4,50.8,45.1,38.6,86,60,28,29.89,29.78,6,0,17,0.00
2013-4-23,78.3,62.2,53.2,48.5,46.3,42.2,82,60,29,29.87,29.75,6,0,10,0.00
2013-4-24,62.0,54.8,51.3,50.7,48.5,45.2,87,79,61,29.89,29.76,6,0,8,0.00
2013-4-25,70.4,58.7,51.7,47.4,44.4,40.3,80,61,35,30.02,29.86,9,0,12,0.00
2013-4-26,78.5,62.0,48.2,46.2,43.2,39.8,75,53,30,30.05,29.99,5,0,9,0.00
2013-4-27,85.9,69.4,53.2,48.9,42.5,30.0,63,41,21,30.03,29.88,7,1,11,0.00
2013-4-29,80.1,67.7,54.2,52.5,50.2,47.5,78,55,37,29.73,29.67,5,0,8,0.04
2013-4-30,70.3,59.6,52.5,50.4,49.1,46.8,85,69,48,29.79,29.70,7,1,11,0.00
2013-5-1,80.1,64.5,54.8,51.3,49.5,47.2,83,61,32,29.99,29.78,7,0,10,0.00
2013-5-2,90.1,75.6,51.7,48.0,7.2,-10.4,82,20,2,30.03,29.89,16,3,24,0.00
2013-5-3,92.3,76.7,61.8,11.2,3.9,-9.3,10,6,3,29.90,29.67,7,1,15,0.00
2013-5-4,77.9,64.6,55.1,50.5,35.5,8.1,75,39,10,29.71,29.61,10,1,18,0.00
2013-5-5,61.2,56.3,52.5,48.2,46.5,44.0,84,70,53,29.85,29.69,13,1,17,0.00
2013-5-6,58.4,54.5,52.2,52.4,49.0,44.5,90,82,63,29.93,29.78,7,0,13,0.34
2013-5-7,63.9,56.7,49.9,50.0,46.0,39.8,90,69,45,29.97,29.90,4,0,9,0.22
2013-5-8,67.6,58.7,51.9,49.3,46.0,40.9,82,64,45,30.00,29.95,5,0,10,0.00
2013-5-9,73.5,60.0,48.3,53.3,47.9,43.0,83,66,42,29.99,29.92,4,0,10,0.00
2013-5-10,84.7,66.6,52.0,54.3,51.3,47.5,87,62,33,29.98,29.89,5,0,11,0.00
2013-5-11,94.9,74.2,55.4,53.4,45.5,33.4,83,44,12,29.97,29.88,6,0,12,0.00
2013-5-12,98.5,81.7,65.6,45.2,39.5,26.1,46,25,8,29.93,29.80,9,1,15,0.00
2013-5-13,98.5,81.2,71.6,42.5,36.5,28.7,28,21,9,29.85,29.76,10,1,12,0.00
2013-5-14,84.9,71.8,56.7,52.1,41.0,29.4,70,36,17,29.87,29.75,7,1,17,0.00
2013-5-15,77.2,62.7,51.4,52.2,49.2,44.8,80,63,40,29.92,29.84,7,0,12,0.00
2013-5-16,73.0,61.4,53.5,52.9,50.8,48.7,85,69,46,29.88,29.79,8,0,12,0.00
2013-5-17,71.3,61.9,54.7,52.9,50.6,47.5,81,68,45,29.89,29.79,6,0,12,0.00
2013-5-18,75.1,62.7,51.3,52.5,49.3,42.8,87,64,42,29.93,29.87,9,0,13,0.00
2013-5-19,81.8,65.4,50.1,53.5,46.8,35.3,75,53,33,29.88,29.77,6,0,11,0.00
2013-5-20,91.0,70.4,52.8,51.9,42.0,29.0,74,40,12,29.84,29.77,12,0,12,0.00
2013-5-21,86.1,68.0,54.4,56.3,51.4,39.0,86,60,26,29.83,29.71,11,0,12,0.00
2013-5-22,75.1,64.0,57.3,54.0,52.0,44.9,86,67,44,29.73,29.66,10,1,12,0.00
2013-5-23,68.9,60.8,51.1,49.4,44.7,29.0,76,56,41,29.83,29.70,9,0,13,0.00
2013-5-24,72.3,60.0,48.0,51.1,46.1,40.0,79,61,43,29.88,29.81,8,0,14,0.00
2013-5-25,72.5,59.8,47.4,50.0,46.8,43.1,86,64,41,29.92,29.85,10,0,12,0.00
2013-5-26,72.8,60.9,48.5,51.8,48.0,43.9,85,64,42,29.95,29.87,6,0,12,0.00
2013-5-27,78.5,63.3,50.8,53.2,49.6,45.5,85,63,36,29.89,29.75,6,0,11,0.00
2013-5-28,86.1,68.7,54.4,52.9,44.8,29.0,82,49,16,29.77,29.64,8,0,14,0.00
2013-5-29,92.5,73.8,57.5,50.3,43.3,36.6,52,36,17,29.68,29.59,11,1,15,0.00
2013-5-30,84.0,69.6,56.5,56.4,52.2,41.4,77,56,34,29.77,29.62,6,0,13,0.00
2013-5-31,84.3,69.1,58.6,56.4,54.7,53.0,84,63,35,29.80,29.70,6,0,9,0.00
2013-6-1,98.5,73.0,56.0,56.9,53.3,29.3,85,58,9,29.76,29.62,7,1,10,0.00
2013-6-2,81.6,66.2,56.7,58.8,55.4,52.6,89,70,43,29.72,29.64,7,0,11,0.00
2013-6-3,77.7,64.7,58.7,54.6,52.7,50.6,81,66,40,29.79,29.67,6,0,10,0.00
2013-6-4,61.3,61.3,61.3,53.0,53.0,53.0,74,74,74,29.77,29.77,0,0,0,0.00
2013-6-27,97.1,85.4,73.9,53.7,51.5,46.7,47,33,19,29.92,29.88,6,0,9,0.00
2013-6-28,99.7,82.9,67.3,54.9,52.6,43.7,59,38,21,29.92,29.80,8,1,10,0.00
2013-6-29,102.8,85.8,70.4,56.2,50.4,40.1,55,31,19,29.83,29.69,7,1,8,0.00
2013-6-30,101.2,84.2,71.8,61.3,51.6,40.6,60,35,18,29.75,29.65,7,1,16,0.00
2013-7-1,97.1,80.3,67.6,58.5,54.7,43.9,69,45,17,29.82,29.73,8,0,13,0.00
2013-7-2,92.5,77.6,66.4,60.0,55.2,44.3,68,48,25,29.92,29.82,7,0,13,0.00
2013-7-3,90.1,75.9,65.2,60.1,54.5,44.6,71,50,23,29.86,29.75,6,0,9,0.00
2013-7-4,91.4,75.4,62.3,58.4,54.0,43.3,77,51,23,29.77,29.68,7,0,9,0.00
2013-7-5,85.3,71.2,58.9,58.8,56.1,52.9,85,61,34,29.78,29.71,7,0,12,0.00
2013-7-6,89.3,70.3,58.7,60.0,56.8,51.5,87,66,28,29.78,29.69,7,0,10,0.00
2013-7-7,93.8,73.5,57.8,59.3,53.9,43.9,89,56,24,29.81,29.72,9,1,11,0.00
2013-7-8,98.7,78.5,62.0,52.5,45.2,30.3,66,35,13,29.87,29.81,6,1,10,0.00
2013-7-9,97.8,83.4,70.8,56.1,45.3,30.4,56,27,16,29.91,29.84,6,1,11,0.00
2013-7-10,83.0,73.8,66.6,60.9,56.0,48.2,69,55,30,29.92,29.85,5,0,10,0.00
2013-7-11,76.1,69.9,63.5,62.1,60.3,57.6,87,72,61,29.92,29.85,5,0,8,0.04
2013-7-12,88.6,73.0,62.1,62.5,58.1,52.5,87,63,33,29.89,29.80,5,0,10,0.00
2013-7-13,92.3,74.6,58.9,56.9,51.6,42.4,76,49,20,29.90,29.82,8,1,11,0.00
2013-7-14,95.1,75.5,61.0,56.2,52.4,50.0,71,48,24,29.91,29.80,6,1,10,0.00
2013-7-15,93.8,75.5,61.5,54.6,48.9,40.7,69,44,16,29.85,29.76,7,1,9,0.00
2013-7-16,90.7,73.3,57.8,44.7,38.0,31.4,55,31,14,29.96,29.83,6,0,10,0.00
2013-7-17,94.3,75.8,59.6,39.3,32.7,26.2,34,22,11,30.00,29.93,5,0,11,0.00
2013-7-18,93.6,75.3,60.5,51.9,41.8,27.2,53,31,21,29.96,29.83,8,1,9,0.00
2013-7-19,89.9,73.7,60.7,56.2,50.6,41.6,69,46,29,29.87,29.78,8,1,9,0.00
2013-7-20,88.0,69.4,58.4,60.4,56.9,52.1,83,66,39,29.87,29.75,6,0,10,0.00
2013-7-21,77.4,70.0,63.7,60.6,58.9,54.8,81,68,46,29.92,29.79,5,0,8,0.00
2013-7-22,88.0,73.9,64.3,64.1,60.0,55.1,90,65,35,29.96,29.89,7,1,11,0.08
2013-7-23,88.8,74.0,62.9,57.3,55.1,51.0,78,55,28,30.00,29.90,6,0,9,0.00
2013-7-24,91.2,76.0,61.3,57.0,54.9,52.1,76,51,27,29.95,29.86,6,1,9,0.00
2013-7-25,90.5,73.1,60.4,57.0,55.0,52.1,77,56,30,29.99,29.90,5,0,9,0.00
2013-7-26,83.4,72.3,61.3,60.9,59.1,55.2,88,65,44,30.07,29.96,5,0,7,0.06
2013-7-27,90.5,73.6,62.4,58.1,56.6,52.1,81,58,28,29.99,29.84,7,0,9,0.00
2013-7-28,84.1,67.5,56.9,58.3,55.1,52.4,87,67,37,29.90,29.83,5,0,8,0.00
2013-7-29,85.1,68.2,56.3,55.2,52.5,45.5,87,61,26,30.02,29.90,7,0,11,0.00
2013-7-30,82.6,67.6,55.6,55.7,51.4,47.8,80,58,33,30.10,30.01,7,0,10,0.00
2013-7-31,78.3,64.0,52.3,55.1,51.3,46.2,85,65,44,30.09,29.97,6,0,10,0.00
2013-8-1,82.0,65.5,52.9,54.4,52.0,47.8,88,65,36,30.02,29.89,8,1,9,0.00
2013-8-2,83.8,67.0,53.3,55.1,52.2,48.5,85,62,31,29.96,29.89,6,0,10,0.00
2013-8-3,84.9,67.1,54.4,56.9,53.2,49.8,89,64,33,29.99,29.90,9,0,10,0.00
2013-8-4,87.6,68.3,52.6,56.4,48.6,33.6,85,55,15,30.00,29.91,7,1,10,0.00
2013-8-5,89.5,69.9,55.4,52.3,41.1,27.6,59,39,11,29.98,29.90,7,1,10,0.00
2013-8-6,86.5,68.0,51.4,54.1,46.0,25.0,78,49,11,30.01,29.94,6,0,9,0.00
2013-8-7,85.7,68.4,53.5,53.6,47.3,40.6,70,49,26,30.05,29.95,9,1,11,0.00
2013-8-8,82.4,69.6,59.5,50.2,47.2,42.5,62,47,28,29.92,29.89,7,0,7,0.00
2013-8-9,82.8,66.4,51.9,53.1,45.8,36.1,72,49,26,29.96,29.89,6,0,11,0.00
2013-8-10,82.6,66.0,51.7,54.4,49.7,41.9,79,58,31,30.01,29.94,6,0,10,0.00
2013-8-11,85.7,68.3,55.4,55.0,49.7,47.0,78,55,27,29.98,29.87,7,0,9,0.00
2013-8-12,88.2,69.6,53.9,55.3,51.3,46.8,78,55,28,29.95,29.87,10,1,10,0.00
2013-8-13,91.8,71.6,54.5,56.4,53.0,49.5,84,56,25,29.96,29.85,9,1,10,0.00
2013-8-14,97.3,71.9,55.9,56.4,52.2,40.7,84,55,18,29.91,29.80,7,1,9,0.00
2013-8-15,95.4,74.1,59.9,56.4,50.6,39.9,80,48,15,29.92,29.85,7,1,10,0.00
2013-8-16,95.6,78.1,64.8,51.6,45.1,32.8,54,33,11,29.93,29.87,6,1,9,0.00
2013-8-17,97.1,78.9,65.3,49.4,42.9,33.2,52,31,13,29.92,29.77,7,1,10,0.00
2013-8-18,93.8,76.2,63.1,57.6,48.0,34.7,71,41,13,29.87,29.77,7,1,11,0.00
2013-8-19,90.3,73.1,62.3,59.5,56.0,52.9,76,57,31,29.90,29.82,7,1,9,0.00
2013-8-20,93.8,74.9,60.4,56.8,48.6,36.6,69,44,15,29.90,29.82,7,1,10,0.00
2013-8-21,97.8,79.5,64.2,45.9,39.0,22.0,48,27,7,29.89,29.80,8,1,11,0.00
2013-8-22,98.5,81.7,66.0,42.7,35.0,24.0,38,20,9,29.89,29.77,9,1,11,0.00
2013-8-23,96.3,78.6,64.3,42.7,34.3,25.4,35,21,8,29.84,29.71,7,0,9,0.00
2013-8-24,94.0,76.0,61.5,42.7,36.2,24.4,39,25,9,29.85,29.73,7,1,11,0.00
2013-8-25,94.0,77.4,64.3,54.5,39.0,27.3,39,26,10,29.90,29.81,10,1,13,0.00
2013-8-26,91.6,80.1,68.4,57.2,48.7,34.0,48,34,27,29.90,29.80,7,0,13,0.00
2013-8-27,93.2,81.0,73.2,57.7,55.1,50.7,56,42,28,29.82,29.73,9,1,12,0.00
2013-8-28,95.6,82.1,71.1,55.9,52.3,41.7,58,38,16,29.87,29.75,6,1,12,0.00
2013-8-29,101.0,85.8,70.9,53.3,47.7,40.3,51,29,16,29.91,29.84,6,1,11,0.00
2013-8-30,94.5,84.8,77.6,62.9,56.0,42.2,59,38,26,29.94,29.87,8,1,14,0.00
2013-8-31,92.1,81.7,74.4,65.1,62.7,59.7,66,54,34,29.93,29.84,7,1,11,0.00
2013-9-1,91.4,79.2,71.1,64.1,62.7,58.8,74,58,34,29.91,29.81,9,1,11,0.00
2013-9-2,94.9,79.9,67.6,63.3,59.9,50.6,78,54,23,29.89,29.78,7,1,10,0.00
2013-9-3,97.5,82.7,71.1,59.7,53.1,47.8,63,39,20,29.88,29.79,8,1,15,0.00
2013-9-4,99.9,84.7,73.5,54.3,50.7,46.8,49,33,18,29.88,29.80,7,1,11,0.00
2013-9-5,100.7,86.3,73.5,52.7,47.3,39.9,43,27,15,29.85,29.78,8,1,11,0.00
2013-9-6,101.2,86.7,73.9,46.9,43.1,38.4,33,23,14,29.84,29.75,8,1,11,0.00
2013-9-7,99.7,84.2,73.9,50.5,41.5,36.6,30,23,14,29.84,29.75,6,1,13,0.00
2013-9-8,93.8,79.8,68.1,45.8,39.9,35.5,38,25,15,29.81,29.71,9,1,11,0.00
2013-9-9,89.5,74.8,62.6,54.3,47.5,40.9,70,40,20,29.78,29.70,8,0,9,0.00
2013-9-10,86.3,67.7,56.0,55.8,51.5,43.0,81,59,23,29.92,29.77,6,0,8,0.00
2013-9-11,82.4,67.6,55.4,55.7,52.1,45.0,81,60,28,29.99,29.91,6,0,11,0.00
2013-9-12,91.6,73.2,59.5,52.2,43.6,31.4,72,39,14,29.93,29.81,8,1,10,0.00
2013-9-13,93.4,77.5,65.0,48.7,40.0,32.3,35,27,18,29.83,29.65,6,0,8,0.00
2013-9-14,98.5,80.6,67.3,49.2,45.0,41.6,42,30,16,29.70,29.61,7,1,9,0.00
2013-9-15,99.0,80.3,65.8,48.4,42.7,36.4,49,28,12,29.75,29.66,7,1,11,0.00
2013-9-16,98.5,80.2,66.3,48.6,39.0,33.3,40,25,11,29.80,29.70,7,1,11,0.00
2013-9-17,87.4,70.4,58.9,56.8,45.4,32.7,71,43,19,29.78,29.69,11,0,14,0.00
2013-9-18,80.1,64.3,54.1,55.1,52.2,48.7,87,67,38,29.79,29.73,6,0,10,0.00
2013-9-19,85.3,67.5,55.6,57.1,53.6,45.5,81,63,36,29.82,29.73,6,1,9,0.00
2013-9-20,72.1,63.4,56.0,57.9,55.4,51.9,88,76,59,29.88,29.80,7,0,11,0.00
2013-9-21,77.9,64.9,56.5,55.8,52.4,45.6,84,66,38,29.91,29.78,7,0,11,0.00
2013-9-22,78.3,64.9,53.5,49.6,41.8,34.2,84,46,22,29.84,29.77,7,1,12,0.00
2013-9-23,91.6,73.5,56.7,41.6,31.7,26.5,52,25,11,29.89,29.82,7,0,12,0.00
2013-9-24,90.3,74.4,62.9,37.3,31.9,28.0,32,22,14,29.92,29.82,6,0,10,0.00
2013-9-25,77.2,64.8,54.8,54.4,47.4,30.7,74,55,29,29.82,29.67,8,0,14,0.00
2013-9-26,77.4,63.9,53.3,50.6,31.0,16.2,76,36,10,29.89,29.71,11,1,16,0.00
2013-9-27,82.4,67.8,55.6,31.0,22.4,12.2,28,19,9,29.99,29.88,20,1,25,0.00
2013-9-28,88.0,71.0,57.2,25.4,17.3,10.5,21,13,8,30.03,29.95,11,1,13,0.00
2013-9-29,87.8,71.4,58.7,27.8,20.7,12.6,23,15,8,30.05,29.95,10,0,11,0.00
2013-9-30,88.6,71.2,58.4,44.5,34.2,24.7,52,27,15,29.98,29.83,9,0,11,0.00
2013-10-1,83.2,68.7,58.9,54.7,43.1,29.7,77,42,23,29.91,29.85,7,0,9,0.00
2013-10-2,77.0,62.8,55.1,54.5,52.1,49.2,86,70,40,29.96,29.86,11,0,11,0.00
2013-10-3,73.5,61.9,53.3,54.1,50.9,46.6,85,69,41,29.93,29.81,11,0,12,0.00
2013-10-4,80.3,64.7,52.6,51.9,31.5,-2.4,88,50,4,30.00,29.88,25,3,25,0.01
2013-10-5,88.4,77.7,67.1,17.0,8.0,-2.3,10,7,4,30.12,30.03,27,2,27,0.00
2013-10-6,91.0,73.2,60.2,14.4,6.5,-3.7,13,8,4,30.08,29.94,10,1,10,0.00
2013-10-7,87.0,70.5,58.7,32.4,17.2,8.7,31,14,7,29.96,29.88,7,0,11,0.00
2013-10-8,74.6,61.1,51.0,51.4,38.1,15.2,77,46,17,29.91,29.80,11,0,11,0.00
2013-10-9,57.6,52.4,47.7,49.8,46.8,44.0,88,82,71,29.82,29.69,10,0,14,0.30
2013-10-10,66.1,53.0,42.8,45.3,41.6,37.4,88,68,36,30.04,29.81,7,0,10,0.18
2013-10-11,75.8,58.7,47.6,44.3,41.2,36.9,81,55,27,30.05,29.95,8,0,9,0.00
2013-10-12,77.6,61.5,51.4,43.2,37.9,32.6,56,43,21,29.97,29.88,7,0,10,0.00
2013-10-13,69.1,57.2,46.1,49.7,45.7,38.2,84,67,42,30.03,29.93,10,0,10,0.00
2013-10-14,82.4,66.2,49.1,47.6,34.3,17.2,85,39,12,30.03,29.92,10,1,13,0.00
2013-10-15,84.0,72.2,60.2,30.5,21.5,14.9,22,15,11,29.97,29.86,10,1,10,0.00
2013-10-16,83.2,70.1,57.5,22.8,18.5,11.6,23,15,8,30.05,29.96,12,1,13,0.00
2013-10-17,82.4,66.8,56.2,27.4,21.9,17.1,28,19,11,30.02,29.91,9,0,10,0.00
2013-10-18,87.0,68.3,55.4,31.2,25.6,15.1,31,21,9,30.01,29.92,8,0,9,0.00
2013-10-19,88.0,71.2,60.2,34.2,22.1,14.6,23,16,8,30.02,29.93,9,0,9,0.00
2013-10-20,83.4,66.8,56.9,46.5,31.8,16.8,59,30,11,29.97,29.87,8,0,8,0.00
2013-10-21,78.1,59.6,52.8,42.5,34.2,20.3,59,41,18,29.97,29.92,7,0,7,0.00
2013-10-23,72.0,60.0,49.9,52.0,49.9,45.9,88,71,47,29.98,29.88,7,0,8,0.00
2013-10-24,71.8,58.6,51.7,51.4,48.4,44.2,85,70,44,30.05,29.95,7,0,7,0.00
2013-10-25,78.3,60.6,48.3,51.1,47.2,43.2,87,64,33,30.13,30.02,5,0,7,0.00
2013-10-26,86.5,70.3,56.7,47.4,31.8,23.3,66,26,11,30.08,29.96,7,0,8,0.00
2013-10-27,78.1,65.3,56.3,54.0,36.9,19.0,83,40,17,29.97,29.77,7,0,10,0.00
2013-10-28,60.7,54.6,51.1,50.5,44.4,38.5,82,69,45,29.94,29.78,11,1,14,0.01
2013-10-29,62.6,52.3,44.6,47.5,41.6,37.4,81,68,42,30.02,29.93,8,0,10,0.01
2013-10-30,69.9,54.2,42.9,43.7,39.0,34.2,81,59,28,30.08,30.00,7,0,8,0.00
2013-10-31,78.5,61.5,50.5,37.0,28.8,20.0,59,31,15,30.10,30.00,6,0,8,0.00
2013-11-1,83.6,67.5,53.6,27.6,23.0,19.4,31,20,10,30.12,29.95,10,0,10,0.00
2013-11-2,81.6,64.8,53.5,33.1,24.6,20.5,39,23,11,30.01,29.85,10,1,11,0.00
2013-11-3,69.4,56.1,46.7,49.3,43.6,28.6,79,64,38,29.92,29.82,6,0,10,0.00
2013-11-4,66.9,56.0,48.5,49.8,44.7,37.5,89,68,38,29.96,29.81,7,0,7,0.06
2013-11-5,72.8,59.6,48.5,39.1,17.7,-3.0,66,23,5,30.15,29.96,10,0,14,0.00
2013-11-6,80.1,64.3,52.0,17.2,9.8,2.7,21,12,7,30.21,30.12,10,0,12,0.00
2013-11-7,83.4,67.9,58.7,23.6,14.9,8.8,20,13,6,30.13,29.99,6,0,7,0.00
2013-11-8,80.3,65.0,54.7,40.8,21.9,8.9,49,22,10,30.02,29.92,10,0,10,0.00
2013-11-9,77.2,61.7,52.5,31.2,20.2,7.2,31,21,10,30.07,29.99,9,0,9,0.00
2013-11-10,82.4,63.6,54.7,43.3,20.8,-7.1,47,23,3,30.12,30.03,6,0,8,0.00
2013-11-11,83.2,65.7,53.8,33.6,22.2,13.6,27,20,9,30.12,30.02,7,0,9,0.00
2013-11-12,81.2,69.8,60.4,32.4,24.9,20.6,25,19,13,30.16,30.07,3,0,7,0.00
2013-11-13,90.3,76.4,63.9,28.5,20.0,12.2,19,13,7,30.07,29.89,8,0,13,0.00
2013-11-14,88.2,75.6,62.1,26.5,20.0,14.7,24,13,8,29.92,29.73,15,1,15,0.00
2013-11-15,66.6,58.2,49.5,50.7,42.8,23.4,79,59,26,29.76,29.65,8,0,10,0.00
2013-11-16,58.3,54.8,48.2,49.0,45.6,42.4,82,71,56,29.95,29.75,11,0,11,0.00
2013-11-17,64.8,54.7,46.2,46.0,43.5,40.5,83,67,46,30.10,29.95,4,0,7,0.00
2013-11-18,66.0,55.3,47.4,48.0,44.5,39.9,79,68,48,30.16,30.05,5,0,7,0.00
2013-11-19,63.4,55.6,48.8,47.7,46.3,43.7,84,71,53,30.09,29.95,5,0,7,0.00
2013-11-20,60.9,55.5,51.7,50.6,47.8,44.9,88,76,60,29.99,29.88,5,0,8,0.07
2013-11-21,59.3,54.5,50.8,54.1,48.9,38.0,90,82,56,29.89,29.82,19,0,19,0.49
2013-11-22,56.2,53.5,52.2,38.3,31.1,28.3,59,42,36,29.97,29.84,23,5,27,0.00
2013-11-23,59.8,53.9,46.5,33.9,31.8,29.2,60,43,34,30.10,29.95,18,1,19,0.00
2013-11-24,64.8,53.8,45.8,37.3,35.0,32.0,65,50,32,30.20,30.08,13,0,17,0.00
2013-11-25,71.6,55.8,46.4,39.5,33.6,26.8,60,45,22,30.25,30.16,6,0,7,0.00
2013-11-26,74.9,60.5,50.7,32.7,28.8,24.6,42,31,17,30.21,30.06,8,0,11,0.00
2013-11-27,72.1,59.3,51.0,33.8,30.2,25.3,46,34,19,30.06,29.88,8,0,11,0.00
2013-11-28,66.4,57.4,49.1,40.5,33.0,27.3,55,41,24,30.07,29.89,11,0,16,0.00
2013-11-29,58.9,54.1,51.6,52.4,44.9,35.9,87,72,49,30.20,30.06,19,0,19,0.26
2013-11-30,74.4,61.9,50.7,44.2,35.8,23.3,64,41,21,30.21,30.09,8,0,11,0.00
2013-12-1,78.5,65.5,56.5,32.9,24.0,18.2,36,21,13,30.21,30.09,10,1,18,0.00
2013-12-2,59.9,56.7,54.4,21.5,18.8,15.8,25,23,18,30.13,30.05,10,0,13,0.00
2013-12-3,62.9,55.1,46.7,48.3,40.4,25.0,79,59,35,29.87,29.74,11,0,15,0.00
2013-12-4,58.9,48.3,38.5,38.0,22.4,4.1,66,38,14,29.98,29.77,8,0,12,0.00
2013-12-5,55.4,44.3,37.5,29.1,26.4,15.4,69,52,22,30.13,29.97,8,0,12,0.00
2013-12-6,56.0,45.4,37.8,36.4,31.0,23.7,72,58,30,30.19,30.10,10,0,11,0.00
2013-12-7,49.2,43.8,38.6,44.6,33.0,14.9,87,68,33,30.14,30.00,15,0,17,0.10
2013-12-8,52.2,41.3,33.8,30.3,22.8,8.2,66,49,27,30.24,30.11,8,0,10,0.00
2013-12-9,58.7,44.6,33.2,22.4,0.8,-26.2,45,21,3,30.33,30.21,15,1,18,0.00
2013-12-10,64.0,47.6,36.0,10.1,4.6,-0.7,28,18,8,30.30,30.13,6,0,6,0.00
2013-12-11,69.6,53.9,42.3,12.6,7.1,1.4,20,15,9,30.19,30.12,7,0,8,0.00
2013-12-12,68.1,54.4,45.7,40.5,18.9,3.9,67,29,11,30.21,30.13,14,0,15,0.00
2013-12-13,64.2,50.7,40.6,36.5,27.0,15.6,60,41,24,30.24,30.14,8,0,9,0.00
2013-12-14,73.3,62.6,52.3,27.7,13.7,1.3,37,15,6,30.30,30.20,11,1,20,0.00
2013-12-15,79.0,62.5,51.1,20.7,15.2,10.2,22,16,9,30.25,30.11,5,0,7,0.00
2013-12-16,83.0,68.0,58.6,24.0,18.8,14.3,20,16,9,30.14,30.07,4,0,6,0.00
2013-12-17,83.4,69.5,60.9,27.8,21.8,17.5,25,17,9,30.12,30.00,6,0,7,0.00
2013-12-18,71.5,61.5,51.6,49.5,36.2,20.9,84,44,19,30.01,29.82,7,0,13,0.00
2013-12-19,52.5,47.1,42.6,44.9,41.2,31.9,87,80,50,29.83,29.72,11,0,11,0.41
2013-12-20,62.1,50.5,42.5,39.0,31.6,22.7,78,50,27,29.96,29.77,14,0,20,0.00
2013-12-21,58.0,47.1,39.5,41.8,35.4,22.9,84,64,46,30.11,29.93,6,0,9,0.00
2013-12-22,69.4,53.0,41.2,38.7,35.1,27.6,85,55,21,30.28,30.11,5,0,13,0.00
2013-12-23,73.2,57.7,48.2,34.2,30.3,27.4,50,37,20,30.34,30.21,7,0,7,0.00
2013-12-24,77.4,63.3,51.9,30.8,25.2,6.7,39,25,8,30.21,30.10,14,0,15,0.00
2013-12-25,77.2,71.8,66.4,11.3,-0.1,-22.0,10,6,2,30.18,30.10,16,3,25,0.00
2013-12-26,77.9,66.9,56.3,13.9,-0.7,-10.8,16,7,3,30.15,30.05,13,1,19,0.00
2013-12-27,80.5,64.3,54.2,12.7,4.4,-5.6,14,9,4,30.17,30.05,6,0,9,0.00
2013-12-28,74.2,60.6,49.8,25.6,15.4,6.9,34,18,10,30.04,29.91,7,0,10,0.00
2013-12-29,73.3,61.3,49.8,20.5,-0.4,-16.5,31,10,3,30.15,30.00,19,1,24,0.00
2013-12-30,72.5,57.7,49.4,16.5,4.2,-8.0,20,12,6,30.26,30.14,7,0,9,0.00
2013-12-31,73.0,57.2,49.2,21.5,12.5,5.3,28,18,8,30.20,30.09,4,0,6,0.00
2014-1-1,76.1,59.6,48.5,22.3,16.2,9.1,28,19,10,30.14,30.05,5,0,7,0.00
2014-1-2,79.2,63.9,55.6,22.5,18.3,15.3,25,18,10,30.11,29.99,5,0,7,0.00